Regional Weather Roundup
Issued by NWS

Home | Current Version | Previous Version | Text Only | Print | Product List | Glossary On
Versions: 1 2 3 4 5 6 7 8 9 10 11 12 13 14 15 16 17 18 19 20 21 22 23 24 25 26 27
000
ASUS45 KBOU 030910
RWRCO

WEATHER ROUNDUP FOR COLORADO
NATIONAL WEATHER SERVICE DENVER/BOULDER CO
200 AM MST SAT DEC 03 2022

NOTE: "FAIR" INDICATES FEW OR NO CLOUDS BELOW 12000 FEET WITH NO
SIGNIFICANT WEATHER AND/OR OBSTRUCTIONS TO VISIBILITY.

COZ001>005-013-030-031-031000-
...NORTHWEST COLORADO...

CITY           SKY/WX    TMP DP  RH WIND       PRES   REMARKS
CRAIG          FAIR      -4 -10  75 CALM      30.37R
HAYDEN         FAIR       5  -2  72 E13       30.37R WCI -12
MEEKER         MOCLDY     1  -2  87 S3        30.34R
RANGELY          N/A    N/A N/A N/A MISG        N/A
RABBIT EARS PA NOT AVBL
STEAMBOAT SPGS FAIR      -2  -4  90 CALM      30.34R
WALDEN         FAIR       5   0  78 SE8       30.27R WCI  -8
$$

COZ006>008-011-031000-
...WEST CENTRAL VALLEYS...

CITY           SKY/WX    TMP DP  RH WIND       PRES   REMARKS
GRAND JUNCTION FAIR      25  18  74 E3        30.31S
MONTROSE       FAIR      25  21  85 SE8       30.32R WCI  16
EAGLE          FAIR       9   5  84 E7        30.41R WCI  -2
RIFLE          FAIR      17  11  77 SE3       30.37R
DELTA          FAIR      27  18  70 NE6       30.34R WCI  20
NUCLA          NOT AVBL
$$

COZ017>023-064>068-031000-
...SOUTHWEST COLORADO...

CITY           SKY/WX    TMP DP  RH WIND       PRES   REMARKS
DURANGO        FAIR      22  16  78 CALM      30.34R
CORTEZ         FAIR      22  16  78 CALM      30.31R
PAGOSA SPRINGS FAIR      21  18  87 CALM      30.36R
TELLURIDE      MOCLDY    32   1  27 CALM      30.33R
WOLF CREEK PAS CLOUDY    14  14 100 SW18G24   30.40R WCI  -3
$$

COZ009-010-012-014-032>034-037-058>063-031000-
...CENTRAL COLORADO...

CITY           SKY/WX    TMP DP  RH WIND       PRES   REMARKS
ASPEN          FAIR       9   5  84 S6        30.30S WCI  -1
BUENA VISTA      N/A     15   6  67 NW13      30.30R WCI   1
COPPER MTN     FAIR      19  -9  27 S10G22    30.28R WCI   8
BERTHOUD PASS  FAIR      12 -15  29 W33G47    30.20R WCI -10
DAKOTA HILL    FAIR      18 -13  25 W28G40    30.19R WCI  -1
COTTONWOOD PAS FAIR      27  12  54 W10G20    30.29R WCI  17
GUNNISON       FAIR      15  10  80 CALM      30.37R
GRANBY         FLURRIES   1  -3  81 CALM      30.34R
KREMMLING      FAIR      -2  -6  84 CALM      30.38R
LEADVILLE      FAIR       5  -1  76 CALM      30.27R
SALIDA         FAIR      28  14  55 CALM      30.38R
SUNLIGHT       FAIR      14  12  92 SW12G20   30.33R WCI   0
WILKERSON PASS FAIR      16   9  73 S15       30.28R WCI   1
$$

COZ069>075-031000-
...SAN LUIS VALLEY/SANGRE DE CRISTO MOUNTAINS...

CITY           SKY/WX    TMP DP  RH WIND       PRES   REMARKS
ALAMOSA        FAIR      15  12  88 SE7       30.32R WCI   5
DEL NORTE      FAIR      24  12  60 W12       30.33R WCI  13
LA VETA PASS   FAIR      21  12  68 W13G18    30.29S WCI   9
SAGUACHE       FAIR      19  12  73 NW12      30.36R WCI   7
$$

COZ035-036-038>040-031000-
...NORTHERN COLORADO FRONT RANGE...

CITY           SKY/WX    TMP DP  RH WIND       PRES   REMARKS
DENVER INTL AP FAIR      16   5  62 SE9       30.25S WCI   4
AURORA         CLEAR     21   4  47 S7        30.23S WCI  13
WATKINS        NOT AVBL
ERIE           FAIR      16  10  78 CALM      30.26S
BOULDER        FAIR      21   9  58 N3        30.26S
CENTENNIAL     FAIR      19   7  59 W5        30.22S WCI  12
BROOMFIELD     FAIR      21   9  58 N5        30.24S WCI  15
FORT COLLINS   FAIR      21   9  59 CALM      30.30R
LONGMONT       FAIR      23  10  56 N5        30.29S WCI  17
$$

COZ041-046-047-076>085-087-088-031000-
...PIKES PEAK/PALMER DIVIDE AND SOUTHERN FOOTHILLS...

CITY           SKY/WX    TMP DP  RH WIND       PRES   REMARKS
COLO. SPRINGS  FAIR      20   6  55 SE7       30.34R WCI  11
A. F. ACADEMY  FAIR      16   4  59 SE9       30.30R WCI   5
SCHRIEVER AFB  NOT AVBL
CHEYENNE MTN   FAIR      17   4  55 S12         N/A  WCI   4
ELLICOTT       FAIR      11   6  82 S5        30.35R WCI   3
FALCON         FAIR      12   5  71 SW7       30.32R WCI   2
FORT CARSON    FAIR      18   6  59 S15       30.34R WCI   4
LIMON          FAIR      15   6  67 SW13      30.34S WCI   1
MONUMENT HILL  FAIR      16   5  62 S20       30.26R WCI  -1
CANON CITY     FAIR      25  10  54 NE7       30.37S WCI  17
WALSENBURG     NOT AVBL
TRINIDAD       FAIR      18   7  62 NW3       30.36R
$$

COZ042>045-048>051-090-091-031000-
...NORTHEAST COLORADO...

CITY           SKY/WX    TMP DP  RH WIND       PRES   REMARKS
GREELEY        FAIR      18  10  71 SE3       30.32R
AKRON          FAIR      14   7  73 S10       30.33R WCI   1
BURLINGTON     FAIR      15   7  70 SW10      30.40R WCI   2
WRAY           FAIR      14   9  79 W7        30.40R WCI   4
YUMA           NOT AVBL
STERLING       FAIR      12   9  85 S7        30.35R WCI   2
HOLYOKE        FAIR      18  10  73 SW7       30.36R WCI   8
FORT MORGAN    FAIR      16   9  73 CALM      30.35R
$$

COZ086-089-092>099-031000-
...SOUTHEAST COLORADO...

CITY           SKY/WX    TMP DP  RH WIND       PRES   REMARKS
PUEBLO         FAIR      22   6  50 SE3       30.40R
LA JUNTA       FAIR      22   8  55 S6        30.43R WCI  14
LAMAR          FAIR      11   4  73 SW7       30.43R WCI   0
SPRINGFIELD      N/A     13   4  67 W5        30.41S WCI   5
$$



USA.gov is the U.S. government's official web portal to all federal, state and local government web resources and services.